Location: Unspecified
(43.4680°N, 87.1740°E)
Time: 05:23:10
(UTC+00:00)

Cosmos 2082 - Pass Details

Date: 17 April 2021
Orbit: 834 x 855 km, 71.0° (Epoch: 16 May)

Event Time Altitude Azimuth Distance (km) Brightness Sun altitude
Exits shadow 16:48:43 48° 6° (N) 1,086 4.4 -32.7°
Drops below altitude 10° 16:52:46 10° 21° (NNE) 2,454 6.6 -33.0°
Sets 16:55:14 0° 24° (NNE) 3,394 7.4 -33.1°
